Theta_e
321 323 326 330 330 336 338 336 340 341 340 341 340 340 340 338 342 343 344 342 337 330 325 322 321 321 320 320 320 319 318 320 314 315 316 311 310 312 313 313 312 309 308
319 324 329 329 327 331 337 336 340 342 340 340 339 335 334 339 342 342 342 337 334 327 323 321 320 320 320 320 319 319 319 317 315 314 311 309 311 313 313 312 311 309 309
321 325 328 327 326 330 336 338 339 340 339 338 337 336 337 339 339 341 338 334 330 326 322 320 319 319 320 319 319 318 318 317 315 311 310 310 311 311 310 309 310 309 308
319 318 319 326 327 328 338 338 339 339 338 337 341 340 340 335 335 338 334 331 328 325 320 320 320 320 320 318 318 317 318 316 315 309 308 309 311 311 311 308 307 309 309
318 317 316 316 327 327 334 337 337 337 340 337 337 335 330 335 335 333 331 329 325 322 319 319 320 319 320 320 320 319 318 315 309 308 306 306 310 309 308 308 308 307 307
317 316 316 317 321 328 328 336 336 337 338 339 336 334 335 335 333 331 330 327 323 320 320 320 321 319 319 319 319 318 319 317 309 306 302 306 308 307 307 309 305 304 303
315 315 316 317 321 327 328 335 335 335 335 337 335 335 334 333 331 330 328 323 320 319 321 321 320 319 320 319 317 315 313 313 312 309 304 306 306 306 307 304 304 303 302
314 315 317 319 321 323 326 334 335 335 334 334 334 332 332 331 329 327 325 321 320 320 320 320 319 318 318 317 316 312 309 305 300 299 305 306 305 305 305 303 303 301 299
315 315 316 317 320 324 322 332 331 334 334 335 333 331 329 328 326 325 323 320 319 319 318 318 317 314 313 313 311 304 300 302 303 303 303 305 304 304 305 305 304 298 297
314 314 315 318 320 323 321 325 331 327 329 333 331 330 328 327 325 324 321 317 315 314 312 312 310 307 307 306 305 299 300 303 304 305 304 304 300 300 298 296 299 297 298
314 314 316 318 321 322 324 324 332 329 331 329 328 324 325 326 322 322 320 317 312 310 308 306 304 305 309 308 303 302 304 304 304 305 304 303 303 301 301 301 300 300 300
312 314 316 318 318 320 328 327 326 329 328 328 324 321 320 320 320 320 319 318 315 310 309 307 306 310 312 308 304 305 305 304 304 304 305 305 305 304 302 302 303 303 300
312 313 316 318 321 326 329 331 330 330 329 325 323 320 317 315 317 319 318 317 314 312 313 310 310 311 312 309 304 307 307 308 308 308 305 305 304 305 305 303 303 304 299
311 314 317 320 324 329 330 331 331 330 325 323 323 320 317 316 315 316 316 315 314 313 312 311 309 309 311 309 310 309 308 308 306 305 304 304 303 304 305 305 303 304 297
313 315 318 321 323 328 330 331 330 329 324 323 320 318 317 315 315 315 316 314 312 312 310 306 308 309 311 310 307 306 306 306 304 303 303 303 302 305 305 306 304 304 299
313 314 317 320 326 328 328 327 329 326 324 323 320 320 318 317 315 315 314 314 312 310 304 303 302 304 305 306 305 305 306 306 303 303 303 303 302 301 302 304 303 303 302
314 317 320 325 327 327 327 325 316 320 323 321 320 320 318 315 314 315 315 313 310 306 302 302 302 302 303 304 305 304 304 303 302 302 303 303 302 301 301 299 299 298 297
318 320 325 326 326 325 326 322 319 318 316 313 316 316 315 314 314 315 314 312 300 300 300 301 301 301 303 304 304 304 303 302 302 302 303 302 301 301 300 299 299 298 296
324 324 325 324 323 323 322 319 319 316 312 308 306 306 310 313 314 314 308 301 300 301 302 302 300 301 304 303 304 305 303 302 301 301 300 300 300 301 301 299 298 298 297
325 324 322 322 321 320 319 318 315 313 311 308 306 303 302 306 303 302 304 302 302 302 302 302 301 302 304 305 304 303 303 302 301 301 301 300 299 300 299 300 299 298 297
322 321 321 320 321 320 320 317 316 313 309 309 307 305 305 307 303 303 304 304 303 303 303 303 301 303 305 306 304 303 302 301 301 301 300 300 299 298 298 299 299 298 297
319 318 320 320 320 320 320 317 315 312 310 309 307 304 307 306 305 305 305 305 305 304 304 304 305 306 306 305 304 303 302 301 301 300 300 300 299 299 298 298 298 297 297
317 318 319 319 319 319 318 317 315 313 310 307 305 304 307 305 306 306 305 305 306 307 308 307 306 306 306 305 303 302 302 301 300 300 299 299 298 298 297 297 297 297 296
316 316 317 315 315 314 315 314 312 310 307 306 306 306 305 306 306 305 305 305 307 308 308 307 305 304 304 303 303 302 301 301 300 300 299 299 298 298 297 297 297 296 296
314 314 314 313 313 313 310 309 308 308 307 306 307 306 305 305 306 306 307 306 306 307 307 306 304 303 303 302 302 301 301 300 299 299 299 299 298 298 297 296 295 294 295
312 312 312 312 312 310 309 308 307 307 308 307 306 305 305 306 306 307 307 306 308 304 304 303 303 302 302 302 301 300 300 299 299 298 298 298 297 297 296 296 294 294 295
Wind_Speed
26 29 25 17 20 25 29 31 33 35 38 39 38 39 37 36 44 42 40 34 31 26 26 29 26 23 19 17 14 13 11 12 8 7 17 10 7 8 10 7 10 8 7
25 27 23 17 15 20 26 29 32 36 39 42 41 45 35 37 44 41 37 35 32 31 30 29 27 22 20 18 16 14 14 19 26 17 16 12 11 12 10 14 12 8 6
21 20 20 20 21 21 28 29 30 35 39 37 39 41 42 37 38 37 37 34 33 34 34 32 27 25 23 20 18 15 17 17 20 29 17 14 13 17 17 11 10 10 7
21 23 25 27 26 22 29 30 33 34 38 39 35 35 38 33 36 37 36 35 35 33 34 29 28 26 25 22 20 19 17 16 27 26 18 14 12 12 13 12 9 10 9
18 25 27 30 29 24 24 31 34 34 35 46 37 34 35 37 38 40 40 38 36 35 31 27 26 23 21 22 23 20 18 23 26 21 13 11 9 9 8 4 7 14 6
19 27 29 29 30 26 23 27 36 33 28 30 35 37 41 38 39 42 41 40 39 36 33 29 26 24 22 20 19 18 17 22 26 16 10 15 11 8 6 7 7 5 1
25 26 26 26 28 25 24 23 30 32 31 27 36 37 37 36 38 43 43 42 40 37 34 33 29 25 24 23 21 19 18 20 19 18 21 18 13 10 15 16 16 15 9
28 26 24 26 26 24 23 23 31 33 32 32 34 38 37 38 43 44 43 41 38 37 35 33 31 29 26 26 25 24 22 19 18 19 21 18 13 12 20 19 17 17 15
27 24 25 26 28 21 19 21 23 27 33 26 36 38 38 41 43 45 45 42 39 37 34 31 30 30 28 26 28 28 27 27 24 24 22 18 14 13 16 13 13 19 14
27 25 27 27 26 23 17 21 27 21 35 38 33 40 46 49 49 50 45 42 38 36 30 29 30 31 30 27 30 33 33 30 28 25 22 20 20 22 19 12 19 19 6
27 28 28 28 23 25 20 20 26 26 25 21 30 33 47 50 50 50 47 42 37 35 33 33 34 31 28 25 28 31 33 31 26 25 23 21 20 22 24 23 21 21 17
27 26 27 28 29 25 17 24 26 31 31 22 24 24 34 47 52 50 45 43 41 40 35 36 36 31 28 25 28 26 29 27 25 24 22 18 17 19 19 19 18 17 16
23 24 25 28 27 24 19 23 26 25 26 29 27 26 26 30 44 46 42 39 39 38 37 36 34 29 29 26 26 25 25 22 19 26 26 20 17 16 18 17 15 13 15
24 23 24 23 21 16 16 22 24 26 25 26 25 27 32 32 36 40 38 36 35 34 35 34 32 30 31 31 27 24 24 22 26 27 23 20 14 17 19 18 16 14 18
21 21 20 21 19 19 20 22 27 31 37 33 32 36 34 30 35 44 48 41 37 37 38 35 32 31 33 32 29 25 22 19 30 24 24 21 17 18 20 18 20 17 16
19 19 20 18 18 19 17 14 23 31 38 40 40 45 40 45 45 40 42 40 40 39 35 28 24 29 30 31 27 22 23 30 29 25 24 22 19 19 23 23 22 19 18
20 20 19 20 18 19 20 17 11 24 38 41 44 41 41 42 45 45 41 37 33 39 26 24 24 28 31 32 29 26 29 29 25 23 23 25 21 21 27 24 20 17 15
22 24 18 17 17 19 22 20 21 22 19 18 33 42 44 49 49 46 44 41 38 28 28 27 23 27 30 33 30 26 27 25 25 25 26 26 23 23 26 25 21 17 16
18 17 19 18 18 19 20 21 21 23 23 25 29 31 49 52 50 45 46 35 30 25 26 24 28 31 32 29 27 26 27 26 26 24 23 24 25 24 24 26 23 18 16
19 20 21 20 21 20 21 22 22 24 27 28 28 30 34 44 36 40 31 32 30 29 31 31 32 35 31 28 27 30 28 27 25 23 23 25 23 20 22 24 26 20 15
18 23 25 23 21 19 21 24 26 27 26 26 31 38 43 36 34 32 28 27 29 30 32 32 36 36 31 29 32 32 29 27 25 23 23 24 22 20 22 22 25 20 17
18 20 21 20 20 19 16 22 26 27 30 30 30 33 36 32 29 25 25 25 29 33 36 35 34 32 30 33 35 32 29 28 26 24 21 23 25 22 20 21 21 18 16
18 17 16 17 19 23 20 19 22 28 28 31 36 36 31 29 30 26 23 27 31 32 29 32 32 29 31 33 33 31 31 31 28 25 22 23 27 26 23 21 20 19 16
17 18 17 17 19 19 22 20 21 27 28 30 34 30 29 31 29 29 26 28 29 23 28 30 29 30 33 33 29 27 29 27 25 22 24 24 24 23 22 21 19 16 15
17 17 18 19 19 18 21 22 24 24 27 31 32 29 30 28 29 29 29 25 25 23 29 31 30 30 30 30 26 25 24 25 24 23 22 21 23 23 23 18 14 14 17
18 18 17 18 19 20 21 21 22 23 26 28 29 29 31 29 30 31 32 29 24 21 30 30 30 30 29 27 25 25 26 26 24 22 21 22 23 25 22 20 18 17 14
Wind_Direction
333 326 307 302 303 276 247 249 241 234 217 202 203 195 204 213 220 212 206 192 188 176 176 173 167 168 160 156 151 147 155 163 130 125 147 147 124 79 105 138 161 155 123
322 322 299 303 309 282 248 245 233 215 200 197 197 190 207 217 212 205 193 187 184 175 175 174 165 166 156 155 155 148 144 146 142 132 145 133 107 100 118 138 165 167 143
317 332 311 318 316 276 244 234 222 209 204 192 187 191 197 202 202 198 194 185 185 181 175 175 167 166 155 156 154 151 148 147 153 143 140 131 113 114 121 127 161 172 168
317 316 317 311 312 294 248 225 213 209 192 193 195 178 186 201 216 199 195 187 187 179 177 171 168 170 167 161 156 153 153 140 151 145 137 130 126 113 114 121 125 180 196
306 311 314 309 305 292 253 223 204 204 195 188 190 185 187 205 199 190 188 187 183 176 174 171 174 170 170 172 164 161 154 142 148 148 140 139 140 119 100 99 137 122 115
291 299 301 304 303 286 263 215 197 196 193 172 177 180 192 197 196 189 186 183 181 174 165 165 163 163 165 165 166 174 182 165 157 149 143 143 136 121 105 119 110 118 39
290 288 289 291 293 286 270 223 193 202 196 174 177 184 185 188 187 187 185 180 176 171 166 162 156 160 161 155 150 145 152 166 172 166 146 141 136 127 130 118 106 93 74
286 289 287 286 285 287 268 242 195 198 205 207 189 179 179 187 185 184 180 178 175 168 169 165 160 156 162 159 146 140 140 143 142 140 135 127 124 125 142 128 115 96 73
276 280 281 282 285 290 262 236 212 188 219 192 185 176 174 177 179 181 179 173 171 167 170 167 164 159 161 161 148 138 134 128 124 119 116 118 117 122 145 155 137 103 78
272 274 278 281 284 290 276 226 208 182 207 221 180 178 179 176 181 181 176 166 162 163 169 167 166 162 159 162 153 147 143 143 138 128 121 120 109 104 101 106 138 121 121
271 276 276 278 281 285 281 236 189 169 171 182 167 170 171 175 178 178 176 167 162 159 162 163 162 161 159 160 160 156 151 151 147 137 130 128 126 113 104 99 97 99 100
275 272 269 276 283 283 260 219 185 173 172 187 159 156 163 170 174 177 176 177 173 163 163 166 163 165 167 166 164 155 156 155 154 154 152 149 145 132 123 112 101 94 87
269 271 265 273 276 285 245 203 194 169 167 167 160 154 151 161 164 174 178 179 175 169 173 168 166 170 174 170 173 171 168 164 167 165 164 168 162 149 142 131 121 106 100
265 263 258 257 271 254 233 197 177 173 170 164 162 157 158 159 159 163 168 173 174 176 170 166 168 169 175 176 175 173 170 175 168 162 163 168 168 170 166 157 142 135 116
251 257 256 258 265 223 211 189 180 181 174 166 167 159 160 166 173 170 167 168 172 172 162 162 161 164 170 175 175 177 177 178 170 163 155 156 151 161 172 171 163 156 141
248 250 247 248 232 200 190 176 180 181 174 173 170 168 172 172 170 165 166 171 176 169 158 158 161 164 168 173 174 174 179 171 171 169 167 165 158 150 149 155 157 161 156
239 239 240 236 208 187 175 164 127 155 174 174 172 168 170 168 161 166 168 168 171 169 159 167 169 169 175 175 173 166 164 166 168 171 178 169 165 157 156 153 146 141 145
242 229 217 197 172 163 166 156 155 150 152 150 168 166 165 163 167 166 165 167 155 162 165 167 172 169 175 174 172 168 165 161 158 159 162 168 168 164 162 158 154 145 139
228 195 173 158 153 161 152 145 148 139 133 126 132 148 161 160 163 166 166 152 156 162 167 169 175 173 177 176 171 172 170 165 165 165 163 165 162 158 163 165 161 152 147
186 174 152 146 145 142 141 138 142 139 138 145 150 146 148 150 150 153 158 161 166 171 172 176 181 181 181 179 174 169 167 167 167 168 172 167 167 170 160 162 168 164 154
156 162 155 147 153 152 148 151 150 146 146 152 151 157 161 155 154 159 158 162 168 172 178 182 181 183 185 185 182 175 171 173 173 173 170 172 171 166 164 160 170 170 160
152 153 151 147 144 140 153 152 151 147 148 149 150 158 155 146 152 154 156 165 175 182 184 182 183 187 190 189 185 180 177 174 177 174 166 171 176 171 172 168 166 165 168
137 131 131 136 140 137 130 144 145 146 146 149 152 154 152 149 151 155 165 181 185 180 186 187 185 185 188 188 182 183 181 179 180 180 167 167 170 165 164 164 165 158 157
124 123 120 119 125 125 131 123 123 131 136 144 151 152 144 149 154 165 169 182 179 183 184 183 181 178 178 180 182 183 183 182 180 181 177 172 170 171 171 165 164 161 154
115 119 123 125 124 121 119 125 128 137 140 144 149 147 144 147 154 164 175 169 180 185 184 181 179 176 174 173 177 180 179 176 178 180 180 180 176 172 170 168 171 170 160
111 114 113 117 120 123 128 131 134 138 141 144 145 143 145 147 154 166 169 166 172 183 174 171 172 171 173 176 176 174 173 174 175 178 179 177 171 167 166 162 156 154 145